1505638800.17,43393,13.25,73482.5,4.21,2.65,2.59,0,*7B
1505638801.39,43394,13.25,73482.8,4.19,2.77,2.69,0,*77
1505638802.56,43395,13.25,73482.0,4.19,2.91,2.91,0,*79
1505638803.77,43396,13.25,73488.8,4.19,2.91,2.89,0,*73
1505638805.03,43397,13.25,73512.0,4.17,3.15,3.11,0,*71
1505638806.29,43398,13.25,73504.3,4.17,2.89,2.89,0,*7A
1505638807.5,43399,13.25,73490.5,4.17,2.65,2.61,0,*7F
1505638808.76,43400,13.25,73476.3,4.17,2.55,2.51,0,*78
1505638810.01,43401,13.25,73464.3,4.13,2.85,2.77,0,*74
1505638811.22,43402,13.25,73468.3,4.17,2.65,2.61,0,*7A
1505638812.46,43403,13.25,73470.8,4.13,2.27,2.17,0,*78
1505638813.68,43404,13.25,73486.5,4.13,2.27,2.25,0,*7E
1505638814.92,43405,13.25,73480.0,4.09,2.59,2.61,0,*7D
1505638816.16,43406,13.25,73482.5,4.11,2.81,2.81,0,*7C
1505638817.38,43407,13.25,73480.8,4.11,2.73,2.73,0,*7D
1505638818.6,43408,13.25,73486.8,4.11,2.73,2.73,0,*72
1505638819.84,43409,13.25,73484.3,4.09,2.61,2.59,0,*71
1505638821.09,43410,13.25,73488.8,4.09,2.81,2.69,0,*74
1505638822.32,43411,13.25,73500.5,4.07,3.33,3.33,0,*7D
1505638823.53,43412,13.25,73498.3,4.09,3.25,3.25,0,*70
1505638824.76,43413,13.25,73488.0,4.09,3.37,3.29,0,*7E
1505638825.96,43414,13.25,73486.3,4.09,3.29,3.25,0,*7A
1505638827.2,43415,13.25,73470.8,4.11,3.41,3.41,0,*7E
1505638828.46,43416,13.25,73468.0,4.09,3.45,3.41,0,*70
1505638829.72,43417,13.25,73476.3,4.09,2.59,2.55,0,*79
1505638830.98,43418,13.25,73486.8,4.09,2.81,2.81,0,*7A
1505638832.2,43419,13.25,73478.3,4.09,3.25,3.19,0,*74
1505638833.46,43420,13.25,73480.0,4.09,2.73,2.73,0,*71
1505638834.68,43421,13.25,73488.0,4.07,2.69,2.59,0,*7D
1505638835.94,43422,13.25,73490.3,4.05,2.81,2.81,0,*7F
1505638837.17,43423,13.25,73480.3,4.07,2.89,2.89,0,*7C
1505638838.41,43424,13.25,73480.5,4.07,2.81,2.81,0,*7B
1505638839.63,43425,13.25,73476.8,4.07,2.69,2.69,0,*7A
1505638840.89,43426,13.25,73476.3,4.05,2.59,2.59,0,*7B
1505638842.15,43427,13.25,73476.8,4.05,2.55,2.39,0,*70
1505638843.37,43428,13.25,73486.8,4.03,2.55,2.39,0,*79
1505638844.62,43429,13.25,73490.3,4.01,2.73,2.69,0,*7B
1505638845.87,43430,13.25,73490.3,4.01,2.73,2.73,0,*78
1505638847.05,43431,13.25,73490.5,4.03,2.65,2.65,0,*7B
1505638848.24,43432,13.25,73490.5,4.03,2.65,2.61,0,*7C
1505638849.5,43433,13.25,73490.8,4.01,2.51,2.43,0,*78
1505638850.7,43434,13.25,73496.0,4.01,2.91,2.91,0,*7C
1505638851.95,43435,13.25,73494.3,4.01,3.19,3.19,0,*7D
1505638853.15,43436,13.25,73492.3,4.03,2.99,3.11,0,*7D
1505638854.36,43437,13.25,73494.3,4.01,2.95,2.91,0,*7B
1505638855.56,43438,13.25,73494.3,4.01,2.95,2.95,0,*70
1505638856.82,43439,13.25,73492.8,4.01,3.15,3.15,0,*71
1505638858.07,43440,13.25,73498.8,4.01,3.19,3.19,0,*7F
1505638859.3,43441,13.25,73500.0,4.03,3.07,3.07,0,*7C
1505638860.51,43442,13.25,73504.3,4.01,2.91,2.95,0,*79
1505638861.78,43443,13.25,73504.5,4.01,3.15,3.15,0,*7C
1505638863.04,43444,13.25,73500.5,4.01,3.75,3.75,0,*7B
1505638864.29,43445,13.25,73484.8,4.01,3.53,3.45,0,*7D
1505638865.52,43446,13.25,73490.3,4.01,2.95,3.03,0,*77
1505638866.73,43447,13.25,73494.0,4.03,3.07,2.99,0,*7C
1505638867.99,43448,13.25,73506.3,4.01,3.45,3.41,0,*73
1505638869.22,43449,13.25,73510.3,4.03,3.33,3.33,0,*74
1505638870.45,43450,13.25,73508.8,4.03,3.71,3.71,0,*7C
1505638871.67,43451,13.25,73506.0,4.03,3.49,3.49,0,*7D
1505638872.85,43452,13.25,73502.3,4.03,3.29,3.29,0,*7E
1505638874.08,43453,13.25,73502.8,4.01,3.33,3.29,0,*76
1505638875.26,43454,13.25,73506.8,4.03,3.29,3.29,0,*78
1505638876.44,43455,13.25,73504.0,4.03,3.29,3.29,0,*79
1505638877.64,43456,13.25,73492.0,4.03,2.73,2.65,0,*7D
1505638878.86,43457,13.25,73498.0,4.03,3.19,3.11,0,*73
1505638880.08,43458,13.25,73494.0,4.03,3.45,3.37,0,*71
1505638881.31,43459,13.25,73498.5,4.03,3.19,3.11,0,*7D
1505638882.54,43460,13.25,73506.8,4.03,3.07,3.07,0,*7F
1505638883.8,43461,13.25,73508.8,4.01,3.41,3.37,0,*7D
1505638884.98,43462,13.25,73510.3,4.03,3.29,3.29,0,*7D
1505638886.16,43463,13.25,73508.3,4.03,3.29,3.29,0,*7C
1505638887.41,43464,13.25,73510.8,4.01,3.33,3.33,0,*79
1505638888.64,43465,13.25,73508.3,4.03,3.45,3.37,0,*7F
1505638889.82,43466,13.25,73508.8,4.03,3.81,3.81,0,*79
1505638891.04,43467,13.25,73504.5,4.03,3.71,3.67,0,*7F
1505638892.27,43468,13.25,73500.3,4.03,3.71,3.79,0,*7F
1505638893.48,43469,13.25,73504.0,4.05,3.85,3.81,0,*74
1505638894.7,43470,13.25,73502.5,4.07,3.33,3.33,0,*7A
1505638895.97,43471,13.25,73494.3,4.05,3.41,3.41,0,*79
1505638897.23,43472,13.25,73500.0,4.05,3.71,3.71,0,*7A
1505638898.43,43473,13.25,73506.3,4.07,3.81,3.75,0,*72
1505638899.66,43474,13.25,73506.8,4.07,3.97,3.97,0,*7E
1505638900.89,43475,13.25,73506.0,4.09,4.07,4.01,0,*77
1505638902.07,43476,13.25,73504.0,4.11,4.15,4.15,0,*7B
1505638903.27,43477,13.25,73504.8,4.09,4.27,4.27,0,*73
1505638904.45,43478,13.25,73494.0,4.11,4.23,4.23,0,*75
1505638905.65,43479,13.25,73492.3,4.11,3.97,3.89,0,*7B
1505638906.86,43480,13.25,73494.8,4.09,3.29,3.29,0,*7B
1505638908.06,43481,13.25,73490.5,4.11,2.91,2.85,0,*76
1505638909.3,43482,13.25,73488.0,4.11,3.07,3.15,0,*73
1505638910.56,43483,13.25,73496.8,4.09,3.19,3.15,0,*74
1505638911.76,43484,13.25,73492.0,4.09,2.91,2.91,0,*7F
1505638913.0,43485,13.25,73488.5,4.09,2.69,2.61,0,*76
1505638914.25,43486,13.25,73484.8,4.05,2.55,2.43,0,*76
1505638915.43,43487,13.25,73488.8,4.07,3.25,3.25,0,*72
1505638916.69,43488,13.25,73492.8,4.05,3.23,3.15,0,*7A
1505638917.95,43489,13.25,73492.8,4.05,3.33,3.33,0,*7E
1505638919.22,43490,13.25,73492.5,4.05,3.15,3.15,0,*76
1505638920.48,43491,13.25,73496.8,4.05,3.03,3.03,0,*77
1505638921.74,43492,13.25,73496.3,4.05,3.15,3.15,0,*74
1505638922.98,43493,13.25,73502.3,4.05,3.23,3.25,0,*73
1505638924.23,43494,13.25,73496.3,4.05,2.77,2.69,0,*7D
1505638925.49,43495,13.25,73492.3,4.05,2.51,2.39,0,*7D
1505638926.74,43496,13.25,73488.0,4.05,2.59,2.59,0,*70
1505638927.98,43497,13.25,73490.8,4.05,3.03,2.99,0,*73
1505638929.23,43498,13.25,73494.0,4.05,3.23,3.23,0,*7E
1505638930.43,43499,13.25,73500.5,4.03,3.49,3.55,0,*74
1505638931.66,43500,13.25,73502.5,4.03,3.79,3.71,0,*70
1505638932.86,43501,13.25,73496.8,4.03,2.95,2.89,0,*74
1505638934.08,43502,13.25,73494.0,4.03,2.89,2.85,0,*76
1505638935.31,43503,13.25,73492.8,4.03,2.89,2.89,0,*7B
1505638936.53,43504,13.25,73496.8,4.03,2.77,2.73,0,*78
1505638937.74,43505,13.25,73502.5,4.01,3.25,3.25,0,*7F
1505638938.97,43506,13.25,73502.8,4.03,3.33,3.33,0,*7E
1505638940.17,43507,13.25,73498.5,4.03,3.29,3.33,0,*74
1505638941.38,43508,13.25,73498.0,4.01,2.91,2.91,0,*72
1505638942.61,43509,13.25,73494.3,4.03,3.37,3.33,0,*75
1505638943.78,43510,13.25,73490.8,4.03,3.59,3.59,0,*79
1505638945.0,43511,13.25,73488.5,4.03,3.49,3.49,0,*78
1505638946.23,43512,13.25,73488.5,4.03,3.71,3.71,0,*7B
1505638947.46,43513,13.25,73484.5,4.03,3.79,3.79,0,*7A
1505638948.69,43514,13.25,73488.5,4.03,3.79,3.71,0,*75
1505638949.91,43515,13.25,73480.5,4.03,3.79,3.79,0,*7C
1505638951.18,43516,13.25,73488.8,4.05,3.75,3.71,0,*7D
1505638952.36,43517,13.25,73504.5,4.07,3.93,3.93,0,*7A
1505638953.57,43518,13.25,73482.0,4.07,3.85,3.75,0,*7A
1505638954.8,43519,13.25,73486.0,4.07,3.37,3.33,0,*70
1505638956.03,43520,13.25,73492.5,4.05,2.91,2.89,0,*75
1505638957.24,43521,13.25,73494.5,4.07,3.03,2.99,0,*7D
1505638958.45,43522,13.25,73492.3,4.05,2.91,2.91,0,*7E
1505638959.71,43523,13.25,73496.8,4.05,3.41,3.49,0,*77
1505638960.96,43524,13.25,73496.0,4.05,3.49,3.49,0,*78
1505638962.22,43525,13.25,73498.8,4.05,3.11,3.03,0,*7A
1505638963.48,43526,13.25,73502.0,4.05,3.37,3.37,0,*7A
1505638964.68,43527,13.25,73494.0,4.05,3.59,3.59,0,*7B
1505638965.94,43528,13.25,73482.5,4.05,3.75,3.75,0,*74
1505638967.2,43529,13.25,73480.0,4.05,3.37,3.37,0,*75
1505638968.46,43530,13.25,73478.3,4.05,3.11,3.03,0,*7E
1505638969.69,43531,13.25,73490.8,4.05,2.99,3.03,0,*7E
1505638970.95,43532,13.25,73488.8,4.05,3.03,2.81,0,*74
1505638972.18,43533,13.25,73500.5,4.03,3.23,3.23,0,*78
1505638973.41,43534,13.25,73502.3,4.03,3.37,3.45,0,*7A
1505638974.63,43535,13.25,73504.3,4.03,3.71,3.67,0,*79
1505638975.86,43536,13.25,73504.0,4.03,3.67,3.67,0,*7D
1505638977.09,43537,13.25,73500.8,4.05,3.59,3.53,0,*70
1505638978.26,43538,13.25,73488.5,4.07,3.59,3.59,0,*77
1505638979.5,43539,13.25,73494.0,4.07,3.41,3.41,0,*76
1505638980.74,43540,13.25,73494.3,4.07,3.41,3.41,0,*78
1505638981.97,43541,13.25,73488.3,4.05,3.75,3.63,0,*7C
1505638983.23,43542,13.25,73486.3,4.05,3.33,3.33,0,*78
1505638984.46,43543,13.25,73490.8,4.05,3.03,2.91,0,*73
1505638985.69,43544,13.25,73500.8,4.05,3.53,3.59,0,*74
1505638986.93,43545,13.25,73490.3,4.05,3.53,3.53,0,*7F
1505638988.19,43546,13.25,73488.5,4.05,3.49,3.41,0,*74
1505638989.39,43547,13.19,73478.8,4.07,3.63,3.53,0,*7C
1505638990.65,43548,13.25,73486.8,4.05,3.11,3.11,0,*72
1505638991.9,43549,13.25,73480.0,4.05,2.77,2.77,0,*73
1505638993.17,43550,13.25,73474.3,4.05,3.15,3.15,0,*7B
1505638994.37,43551,13.25,73490.5,4.05,3.63,3.63,0,*7A
1505638995.62,43552,13.25,73482.3,4.05,3.53,3.49,0,*72
1505638996.86,43553,13.25,73482.3,4.05,2.99,3.03,0,*7A
1505638998.11,43554,13.25,73474.8,4.05,2.77,2.69,0,*70
1505638999.33,43555,13.25,73488.3,4.05,2.89,2.95,0,*73
1505639000.56,43556,13.25,73484.8,4.03,3.23,3.19,0,*72
1505639001.79,43557,13.25,73498.0,4.01,3.03,2.91,0,*72
1505639003.02,43558,13.25,73494.5,4.01,2.69,2.61,0,*7F
1505639004.28,43559,13.25,73476.5,4.01,2.09,2.01,0,*7E
1505639005.51,43560,13.25,73470.5,4.01,1.41,1.37,0,*7D
1505639006.72,43561,13.25,73478.8,3.99,2.31,2.25,0,*7E
1505639007.97,43562,13.25,73480.5,3.97,2.55,2.55,0,*76
1505639009.22,43563,13.25,73476.5,4.01,2.81,2.69,0,*79
1505639010.45,43564,13.25,73480.5,3.99,2.85,2.85,0,*7E
1505639011.68,43565,13.25,73482.5,3.97,2.39,2.31,0,*79
1505639012.87,43566,13.25,73482.0,3.95,2.31,2.31,0,*70
1505639014.09,43567,13.25,73496.8,3.95,2.39,2.31,0,*79
1505639015.34,43568,13.19,73496.3,3.95,2.81,2.77,0,*77
1505639016.59,43569,13.25,73504.3,3.95,2.89,2.81,0,*77
1505639017.81,43570,13.25,73500.3,3.93,2.89,2.89,0,*71
1505639019.02,43571,13.25,73502.5,3.97,2.99,2.99,0,*74
1505639020.22,43572,13.25,73504.0,3.93,3.07,2.99,0,*75
1505639021.48,43573,13.25,73502.5,3.97,2.81,2.77,0,*7F
1505639022.71,43574,13.25,73502.0,3.93,3.37,3.41,0,*74
1505639023.91,43575,13.25,73504.8,3.95,3.81,3.81,0,*72
1505639025.11,43576,13.19,73502.3,3.95,3.85,3.93,0,*76
1505639026.33,43577,13.25,73504.5,3.95,3.53,3.59,0,*7A
1505639027.54,43578,13.25,73508.8,3.95,3.63,3.53,0,*7C
1505639028.74,43579,13.25,73510.0,3.95,3.85,3.85,0,*7E
1505639029.94,43580,13.25,73500.5,3.97,3.81,3.85,0,*7E
1505639031.15,43581,13.25,73484.3,3.97,2.65,2.65,0,*7B
1505639032.36,43582,13.25,73488.3,3.97,3.29,3.25,0,*74
1505639033.59,43583,13.25,73488.3,4.01,2.91,2.85,0,*74
1505639034.83,43584,13.25,73506.5,3.97,2.59,2.65,0,*71
1505639036.08,43585,13.25,73512.3,3.95,2.89,2.81,0,*75
1505639037.3,43586,13.25,73512.5,3.95,3.29,3.37,0,*71
1505639038.53,43587,13.25,73504.8,3.97,3.03,2.99,0,*7F
1505639039.74,43588,13.25,73500.0,3.95,3.29,3.29,0,*70
1505639040.94,43589,13.25,73506.8,3.97,3.25,3.25,0,*73
1505639042.2,43590,13.19,73502.0,3.97,2.77,2.69,0,*74
1505639043.39,43591,13.25,73506.3,3.95,2.91,2.99,0,*70
1505639044.65,43592,13.25,73500.3,3.95,3.41,3.41,0,*7B
1505639045.85,43593,13.25,73506.5,3.93,3.25,3.23,0,*7A
1505639047.04,43594,13.25,73496.0,3.95,2.99,2.99,0,*7D
1505639048.29,43595,13.25,73484.3,3.95,2.09,2.05,0,*70
1505639049.54,43596,13.25,73478.5,3.95,2.55,2.47,0,*7C
1505639050.71,43597,13.25,73486.5,3.93,2.95,2.95,0,*78
1505639051.88,43598,13.25,73492.5,3.93,2.99,2.99,0,*77
1505639053.13,43599,13.25,73498.3,3.95,2.59,2.59,0,*70
1505639054.33,43600,13.25,73500.0,3.93,2.27,2.25,0,*77
1505639055.56,43601,13.25,73502.8,3.93,2.17,2.17,0,*74
1505639056.74,43602,13.25,73504.0,3.93,2.65,2.61,0,*73
1505639057.96,43603,13.25,73504.0,3.89,2.73,2.73,0,*7D
1505639059.2,43604,13.25,73496.8,3.89,2.51,2.51,0,*7A
1505639060.38,43605,13.25,73498.8,3.89,2.91,2.91,0,*7B
1505639061.63,43606,13.25,73498.8,3.87,2.81,2.73,0,*7B
1505639062.86,43607,13.25,73498.3,3.89,2.51,2.47,0,*7E
1505639064.11,43608,13.19,73492.0,3.87,2.47,2.39,0,*71
1505639065.36,43609,13.25,73502.0,3.87,2.59,2.51,0,*71
1505639066.62,43610,13.25,73502.0,3.87,2.59,2.51,0,*79
1505639067.87,43611,13.25,73502.5,3.87,3.03,3.03,0,*70
1505639069.12,43612,13.25,73502.3,3.87,3.23,3.23,0,*73
1505639070.37,43613,13.25,73502.0,3.87,3.03,3.07,0,*76
1505639071.6,43614,13.25,73494.8,3.87,2.61,2.51,0,*76
1505639072.86,43615,13.25,73486.8,3.87,2.51,2.51,0,*74
1505639074.05,43616,13.25,73478.5,3.87,2.95,2.95,0,*77
1505639075.28,43617,13.25,73470.0,3.85,3.03,3.03,0,*74
1505639076.48,43618,13.19,73466.5,3.87,2.95,2.95,0,*79
1505639077.72,43619,13.25,73470.0,3.87,3.19,3.23,0,*71
1505639078.97,43620,13.25,73472.5,3.87,3.45,3.45,0,*72
1505639080.21,43621,13.19,73468.3,3.87,3.53,3.53,0,*73
1505639081.41,43622,13.25,73478.0,3.87,3.29,3.29,0,*70
1505639082.65,43623,13.25,73490.3,3.89,3.67,3.75,0,*7C
1505639083.83,43624,13.25,73488.5,3.89,3.93,3.93,0,*78
1505639085.06,43625,13.25,73480.3,3.89,3.23,3.23,0,*79
1505639086.27,43626,13.25,73490.5,3.89,2.51,2.35,0,*78
1505639087.5,43627,13.25,73486.8,3.89,2.81,2.81,0,*7B
1505639088.75,43628,13.25,73488.0,3.87,3.45,3.41,0,*7E
1505639090.01,43629,13.25,73502.3,3.87,3.67,3.67,0,*7B
1505639091.21,43630,13.25,73498.0,3.89,3.79,3.85,0,*7E
1505639092.41,43631,13.25,73500.0,3.89,3.93,4.01,0,*70
1505639093.64,43632,13.25,73502.0,3.93,4.05,4.05,0,*74
1505639094.86,43633,13.25,73502.3,3.95,4.07,4.01,0,*75
1505639096.07,43634,13.25,73498.5,3.95,3.93,3.93,0,*74
1505639097.29,43635,13.25,73488.8,3.95,4.01,4.07,0,*73
1505639098.5,43636,13.25,73490.0,3.97,4.07,4.07,0,*74
1505639099.73,43637,13.25,73494.5,3.99,3.97,3.97,0,*7B
1505639100.94,43638,13.25,73498.3,3.99,3.97,3.89,0,*7B
1505639102.17,43639,13.25,73502.0,3.99,3.97,3.97,0,*75
1505639103.37,43640,13.25,73500.3,3.97,2.99,2.99,0,*75
1505639104.58,43641,13.25,73504.5,3.99,3.07,2.95,0,*70
1505639105.84,43642,13.25,73512.3,3.97,2.81,2.69,0,*71
1505639107.05,43643,13.25,73512.3,3.97,2.65,2.65,0,*76
1505639108.25,43644,13.25,73514.3,3.95,2.99,2.99,0,*73
1505639109.5,43645,13.25,73512.0,3.95,3.11,3.15,0,*76
1505639110.72,43646,13.25,73504.8,3.95,3.37,3.59,0,*79
1505639111.98,43647,13.19,73504.0,3.97,3.49,3.41,0,*7A
1505639113.23,43648,13.25,73508.0,3.95,3.53,3.49,0,*74
1505639114.45,43649,13.25,73508.8,3.95,3.85,3.97,0,*7D
1505639115.71,43650,13.25,73496.5,3.97,3.75,3.75,0,*74
1505639116.95,43651,13.25,73492.3,3.99,3.15,3.15,0,*7B
1505639118.22,43652,13.25,73494.0,3.97,3.15,3.15,0,*76
1505639119.46,43653,13.25,73486.8,3.97,2.65,2.59,0,*78
1505639120.63,43654,13.25,73484.8,3.99,2.95,2.95,0,*7E
1505639121.87,43655,13.25,73492.5,3.99,3.33,3.33,0,*7F
1505639123.07,43656,13.25,73492.8,3.95,3.29,3.29,0,*70
1505639124.32,43657,13.25,73492.3,3.95,3.23,3.15,0,*74
1505639125.54,43658,13.25,73488.8,3.93,3.11,3.19,0,*70
1505639126.74,43659,13.25,73480.3,3.95,3.25,3.25,0,*7F
1505639127.98,43660,13.25,73472.3,3.95,3.49,3.53,0,*7E
1505639129.2,43661,13.25,73462.0,3.95,3.25,3.23,0,*72
1505639130.42,43662,13.25,73462.8,3.99,2.91,2.81,0,*7A
1505639131.62,43663,13.25,73468.0,3.95,2.91,2.91,0,*76
1505639132.86,43664,13.25,73488.5,3.95,3.11,3.23,0,*70
1505639134.09,43665,13.25,73496.0,3.95,3.63,3.49,0,*78
1505639135.31,43666,13.25,73492.3,3.95,3.25,3.23,0,*75
1505639136.55,43667,13.25,73490.3,3.95,3.23,3.23,0,*72
1505639137.81,43668,13.25,73494.8,3.95,3.23,3.15,0,*78
1505639139.01,43669,13.25,73490.5,3.93,3.23,2.99,0,*7A
1505639140.26,43670,13.25,73492.3,3.95,3.03,3.03,0,*74
1505639141.43,43671,13.25,73494.3,3.93,2.99,2.99,0,*73
1505639142.65,43672,13.25,73486.3,3.93,2.85,2.73,0,*79
1505639143.84,43673,13.25,73488.3,3.93,2.89,2.95,0,*7C
1505639145.06,43674,13.25,73496.0,3.93,3.33,3.23,0,*77
1505639146.28,43675,13.25,73504.3,3.93,3.37,3.45,0,*72
1505639147.48,43676,13.25,73510.0,3.93,3.55,3.45,0,*75
1505639148.72,43677,13.25,73514.3,3.95,3.97,4.01,0,*7B
1505639149.93,43678,13.25,73514.3,3.95,3.93,3.93,0,*7C
1505639151.18,43679,13.25,73502.8,3.95,3.71,3.75,0,*79
1505639152.43,43680,13.25,73508.0,3.97,3.53,3.49,0,*72
1505639153.69,43681,13.25,73506.3,3.97,3.71,3.71,0,*78
1505639154.9,43682,13.19,73500.5,3.97,3.85,3.85,0,*7B
1505639156.15,43683,13.25,73504.3,3.97,3.97,3.97,0,*7A
1505639157.38,43684,13.25,73506.0,3.97,3.93,3.97,0,*79
1505639158.57,43685,13.25,73506.8,3.99,3.89,3.89,0,*72
1505639159.83,43686,13.25,73502.8,3.97,3.41,3.37,0,*7E
1505639161.03,43687,13.25,73500.3,3.99,3.33,3.29,0,*7B
1505639162.21,43688,13.25,73504.5,3.99,3.63,3.55,0,*7A
1505639163.44,43689,13.25,73506.5,3.99,4.01,4.05,0,*7A
1505639164.68,43690,13.25,73516.8,3.99,4.05,4.05,0,*76
1505639165.86,43691,13.25,73512.3,3.99,3.85,3.85,0,*77
1505639167.12,43692,13.25,73514.5,4.01,3.15,3.07,0,*71
1505639168.35,43693,13.25,73518.5,3.99,2.47,2.43,0,*71
1505639169.59,43694,13.25,73510.0,3.99,2.81,2.73,0,*7F
1505639170.77,43695,13.25,73500.3,3.99,3.25,3.25,0,*73
1505639172.03,43696,13.19,73500.8,3.97,2.39,2.39,0,*7E
1505639173.28,43697,13.25,73494.3,3.97,2.55,2.47,0,*7C
1505639174.54,43698,13.25,73492.0,3.97,2.77,2.69,0,*7F
1505639175.79,43699,13.25,73486.0,3.97,3.23,3.23,0,*71
1505639177.0,43700,13.25,73486.8,3.97,3.29,3.29,0,*70
1505639178.21,43701,13.25,73486.0,3.97,3.81,3.81,0,*71
1505639179.44,43702,13.25,73484.8,3.97,4.01,3.93,0,*7E
1505639180.67,43703,13.19,73486.5,3.97,4.01,3.93,0,*7F
1505639181.9,43704,13.25,73484.3,3.97,3.93,4.01,0,*78
1505639183.09,43705,13.25,73486.8,3.99,3.89,3.89,0,*7B
1505639184.33,43706,13.25,73488.5,3.99,3.75,3.75,0,*78
1505639185.52,43707,13.25,73486.8,3.99,3.89,3.89,0,*79
1505639186.7,43708,13.25,73484.8,3.99,3.55,3.55,0,*76
1505639187.93,43709,13.25,73482.8,3.99,3.45,3.41,0,*73
1505639189.17,43710,13.19,73486.3,3.99,3.41,3.41,0,*7F
1505639190.41,43711,13.25,73498.5,3.99,3.33,3.33,0,*7E
1505639191.64,43712,13.25,73500.8,3.99,3.79,3.79,0,*7D
1505639192.88,43713,13.25,73496.8,3.99,3.41,3.33,0,*79
1505639194.11,43714,13.25,73494.8,4.01,3.07,2.95,0,*77
1505639195.37,43715,13.25,73500.5,4.01,3.53,3.41,0,*7F
1505639196.56,43716,13.25,73496.8,3.99,3.29,3.29,0,*79
1505639197.74,43717,13.25,73498.8,3.99,3.29,3.29,0,*78
1505639198.97,43718,13.25,73506.8,3.99,3.33,3.33,0,*77
1505639200.16,43719,13.25,73502.5,3.99,2.91,2.91,0,*76
1505639201.36,43720,13.25,73506.5,3.99,2.95,2.85,0,*7D
1505639202.57,43721,13.25,73496.8,3.97,2.65,2.65,0,*73
1505639203.83,43722,13.19,73492.5,3.97,3.41,3.49,0,*78
1505639205.09,43723,13.19,73490.5,3.97,3.23,3.15,0,*74
1505639206.27,43724,13.25,73496.3,3.99,3.55,3.63,0,*7D
1505639207.48,43725,13.25,73500.0,3.97,3.93,3.93,0,*77
1505639208.69,43726,13.25,73500.0,3.97,3.93,3.93,0,*74
1505639209.9,43727,13.25,73504.0,3.99,3.89,3.97,0,*74
1505639211.13,43728,13.19,73498.3,4.01,4.05,4.11,0,*77
1505639212.38,43729,13.25,73494.8,4.01,3.97,3.97,0,*73
1505639213.64,43730,13.19,73494.8,4.01,3.79,3.79,0,*7B
1505639214.88,43731,13.19,73488.3,4.01,4.05,4.07,0,*78
1505639216.11,43732,13.19,73488.0,4.01,4.05,4.11,0,*7C
1505639217.31,43733,13.25,73488.5,4.01,4.11,4.11,0,*78
1505639218.49,43734,13.25,73486.0,4.03,4.15,4.07,0,*7E
1505639219.67,43735,13.25,73484.8,4.03,4.27,4.27,0,*7C
1505639220.9,43736,13.25,73494.3,4.05,4.05,4.11,0,*7C
1505639222.1,43737,13.25,73498.5,4.05,4.11,4.11,0,*78
1505639223.31,43738,13.19,73490.5,4.05,3.93,3.85,0,*70
1505639224.53,43739,13.25,73492.8,4.05,3.53,3.59,0,*7C
1505639225.79,43740,13.25,73496.3,4.05,3.33,3.37,0,*7C
1505639226.96,43741,13.25,73494.0,4.07,3.59,3.59,0,*7B
1505639228.21,43742,13.25,73490.3,4.05,3.33,3.37,0,*7E
1505639229.41,43743,13.25,73488.5,4.03,3.33,3.29,0,*76
1505639230.64,43744,13.25,73492.5,4.03,3.23,3.19,0,*73
1505639231.86,43745,13.25,73498.3,4.03,3.23,3.19,0,*72
1505639233.11,43746,13.25,73490.0,4.01,2.85,2.85,0,*7A
1505639234.34,43747,13.19,73482.8,4.01,3.03,2.91,0,*71
1505639235.57,43748,13.25,73494.3,4.01,3.55,3.53,0,*72
1505639236.83,43749,13.25,73496.0,4.01,3.67,3.67,0,*75
1505639238.03,43750,13.25,73494.0,4.01,3.85,3.85,0,*7D
1505639239.25,43751,13.19,73486.0,4.03,3.49,3.49,0,*7E
1505639240.45,43752,13.25,73492.8,4.03,3.29,3.23,0,*77
1505639241.63,43753,13.25,73492.0,4.03,3.25,3.25,0,*7C
1505639242.83,43754,13.19,73490.5,4.03,3.79,3.81,0,*7C
1505639244.06,43755,13.19,73494.0,4.03,3.71,3.67,0,*7D
1505639245.27,43756,13.25,73492.8,4.01,3.63,3.63,0,*7B
1505639246.49,43757,13.25,73488.5,4.03,3.45,3.37,0,*7D
1505639247.71,43758,13.25,73490.8,4.03,3.49,3.45,0,*7B
1505639248.94,43759,13.19,73484.8,4.03,3.37,3.37,0,*76
1505639250.2,43760,13.19,73488.8,4.01,2.81,2.73,0,*73
1505639251.43,43761,13.25,73490.8,4.01,3.15,3.25,0,*7C
1505639252.63,43762,13.25,73492.3,4.03,3.29,3.23,0,*74
1505639253.9,43763,13.25,73492.5,4.01,3.15,3.15,0,*7D
1505639255.11,43764,13.25,73498.3,4.01,2.91,2.95,0,*7E
1505639256.37,43765,13.25,73496.3,4.01,3.07,3.15,0,*78
1505639257.55,43766,13.25,73494.8,3.99,3.25,3.25,0,*7E
1505639258.76,43767,13.25,73498.3,3.99,3.03,2.91,0,*75
1505639260.0,43768,13.25,73484.3,3.99,2.51,2.47,0,*77
1505639261.2,43769,13.25,73486.8,3.97,2.99,2.91,0,*77
1505639262.44,43770,13.25,73484.5,3.99,3.45,3.45,0,*79
1505639263.62,43771,13.25,73488.5,3.99,3.29,3.29,0,*78
1505639264.8,43772,13.25,73488.5,3.99,2.91,2.91,0,*7B
1505639266.01,43773,13.25,73490.0,3.97,2.99,2.91,0,*7C
1505639267.25,43774,13.25,73488.3,3.99,3.07,3.07,0,*7D
1505639268.45,43775,13.25,73490.3,3.97,2.99,2.91,0,*7A
1505639269.71,43776,13.19,73484.5,3.97,2.89,2.81,0,*79
1505639270.94,43777,13.25,73482.5,3.99,2.85,2.81,0,*7A
1505639272.15,43778,13.25,73486.5,3.95,2.65,2.61,0,*79
1505639273.32,43779,13.19,73486.8,3.93,2.95,2.99,0,*76
1505639274.54,43780,13.25,73490.3,3.93,2.69,2.73,0,*77
1505639275.76,43781,13.19,73494.5,3.93,3.19,3.11,0,*75
1505639276.98,43782,13.25,73492.8,3.93,3.79,3.71,0,*76
1505639278.21,43783,13.25,73494.5,3.95,3.97,3.93,0,*7D
1505639279.41,43784,13.25,73492.0,3.97,3.93,3.85,0,*7B
1505639280.64,43785,13.19,73490.0,3.97,3.63,3.71,0,*7E
1505639281.85,43786,13.25,73496.5,3.97,3.59,3.59,0,*7E
1505639283.05,43787,13.19,73492.5,3.99,3.63,3.67,0,*75
1505639284.25,43788,13.25,73498.5,3.97,3.85,3.85,0,*70
1505639285.49,43789,13.25,73502.0,3.97,4.07,4.01,0,*77
1505639286.67,43790,13.25,73494.0,3.99,4.11,4.11,0,*77
1505639287.89,43791,13.25,73488.5,3.99,3.53,3.53,0,*76
1505639289.15,43792,13.25,73488.8,3.97,3.23,3.23,0,*7B
1505639290.33,43793,13.25,73488.0,3.99,3.25,3.25,0,*74
1505639291.51,43794,13.25,73492.3,3.99,3.25,3.25,0,*73
1505639292.73,43795,13.25,73496.3,3.99,3.25,3.15,0,*71
1505639293.93,43796,13.25,73488.8,3.97,3.29,3.29,0,*7F
1505639295.14,43797,13.25,73494.0,3.99,3.19,3.29,0,*73
1505639296.37,43798,13.25,73494.8,3.97,3.37,3.29,0,*7E
1505639297.55,43799,13.25,73496.5,3.99,3.59,3.59,0,*7E
1505639298.8,43800,13.25,73496.8,3.97,3.37,3.37,0,*7F
1505639300.01,43801,13.19,73496.8,3.99,3.63,3.67,0,*74
1505639301.21,43802,13.25,73500.3,3.97,3.93,3.85,0,*7A
1505639302.44,43803,13.25,73494.8,3.99,3.45,3.53,0,*75
1505639303.68,43804,13.25,73494.0,3.99,3.45,3.45,0,*75
1505639304.86,43805,13.25,73492.5,3.99,3.63,3.63,0,*74
1505639306.06,43806,13.25,73498.0,3.99,3.67,3.63,0,*73
1505639307.25,43807,13.25,73498.0,3.99,3.85,3.89,0,*7A
1505639308.51,43808,13.25,73496.8,4.01,3.75,3.75,0,*7F
1505639309.72,43809,13.25,73492.5,4.01,3.29,3.29,0,*7E
1505639310.91,43810,13.25,73492.3,3.99,3.25,3.25,0,*70
1505639312.14,43811,13.25,73496.8,3.99,3.75,3.79,0,*7D
1505639313.32,43812,13.25,73502.5,3.99,4.11,4.15,0,*76
1505639314.52,43813,13.19,73498.0,3.99,4.37,4.33,0,*77
1505639315.72,43814,13.25,73496.5,4.01,4.37,4.49,0,*7B
1505639316.96,43815,13.19,73496.0,4.03,4.31,4.31,0,*71
1505639318.18,43816,13.25,73500.0,4.03,4.01,4.01,0,*72
1505639319.38,43817,13.25,73496.3,4.05,4.19,4.11,0,*7D
1505639320.58,43818,13.19,73492.0,4.05,4.07,4.11,0,*7D
1505639321.82,43819,13.25,73504.5,4.07,3.75,3.75,0,*79
1505639322.99,43820,13.25,73506.8,4.07,3.63,3.63,0,*73
1505639324.23,43821,13.25,73492.8,4.05,3.81,3.75,0,*7B
1505639325.46,43822,13.25,73492.5,4.05,4.07,4.05,0,*71
1505639326.7,43823,13.25,73494.3,4.07,4.05,4.05,0,*70
1505639327.95,43824,13.25,73488.5,4.05,3.33,3.37,0,*71
1505639329.18,43825,13.25,73490.5,4.07,2.59,2.51,0,*7E
1505639330.37,43826,13.25,73488.5,4.07,2.65,2.65,0,*75
1505639331.63,43827,13.25,73490.0,4.05,2.51,2.43,0,*75
1505639332.89,43828,13.19,73482.3,4.01,2.59,2.59,0,*7D
1505639334.14,43829,13.25,73488.5,4.01,2.81,2.69,0,*7A